Location: Red Rock Farm
(35.2100°N, 97.2200°W)
Time: 00:02:08
(UTC-05:00)

ISS - All Passes

Search period start: 04 July 2015 00:00
Search period end: 14 July 2015 00:00
Orbit: 398 x 403 km, 51.6° (Epoch: 03 July)

Date Brightness Start Highest point End Pass type
(mag) Time Alt. Az. Time Alt. Az. Time Alt. Az.
04 Jul - 08:20:12 10° SSW 08:23:20 50° SE 08:26:30 10° ENE daylight
04 Jul - 09:57:43 10° WNW 09:59:57 17° NNW 10:02:07 10° NNE daylight
04 Jul - 14:50:44 10° NNW 14:53:00 17° NNE 14:55:17 10° ENE daylight
04 Jul - 16:26:27 10° WNW 16:29:34 45° SW 16:32:40 10° SSE daylight
05 Jul - 07:27:22 10° S 07:29:56 22° SE 07:32:33 10° ENE daylight
05 Jul - 09:03:22 10° W 09:06:15 28° NW 09:09:07 10° NNE daylight
05 Jul - 13:58:12 10° N 13:59:12 11° NNE 14:00:17 10° NE daylight
05 Jul - 15:32:53 10° NW 15:36:07 75° NE 15:39:20 10° SE daylight
06 Jul - 06:36:10 10° SE 06:36:35 10° SE 06:37:09 10° ESE daylight
06 Jul - 08:09:27 10° WSW 08:12:38 58° NW 08:15:51 10° NE daylight
06 Jul - 14:39:33 10° NNW 14:42:32 34° NE 14:45:32 10° ESE daylight
06 Jul - 16:16:29 10° W 16:18:45 17° SW 16:20:57 10° S daylight
07 Jul - 07:15:56 10° SW 07:19:07 60° SE 07:22:20 10° NE daylight
07 Jul - 08:53:47 10° WNW 08:55:48 15° NNW 08:57:47 10° N daylight
07 Jul - 13:46:25 10° NNW 13:48:50 19° NNE 13:51:18 10° E daylight
07 Jul - 15:22:19 10° WNW 15:25:21 38° SW 15:28:22 10° SSE daylight
08 Jul - 06:22:56 10° S 06:25:41 26° SE 06:28:28 10° ENE daylight
08 Jul - 07:59:17 10° W 08:02:03 25° NW 08:04:48 10° NNE daylight
08 Jul - 12:53:39 10° N 12:55:02 12° NNE 12:56:29 10° NE daylight
08 Jul - 14:28:37 10° NW 14:31:52 89° NNE 14:35:06 10° SE daylight
09 Jul - 05:30:57 10° SSE 05:32:16 12° SE 05:33:43 10° ESE visible
09 Jul - 07:05:13 10° WSW 07:08:23 49° NW 07:11:33 10° NE daylight
09 Jul - 13:35:12 10° NW 13:38:17 40° NE 13:41:21 10° ESE daylight
09 Jul - 15:12:28 10° W 15:14:26 15° SW 15:16:19 10° SSW daylight
10 Jul - 06:11:35 10° SW 06:14:49 73° SE 06:18:03 10° NE daylight
10 Jul - 07:49:44 10° WNW 07:51:33 14° NNW 07:53:18 10° N daylight
10 Jul - 12:41:59 10° NNW 12:44:34 22° NNE 12:47:10 10° E daylight
10 Jul - 14:18:04 10° WNW 14:21:01 32° SW 14:23:55 10° SSE daylight
11 Jul - 05:18:25 10° SSW 05:21:19 31° SE 05:24:14 10° ENE visible
11 Jul - 06:55:05 10° W 06:57:44 22° NNW 07:00:22 10° NNE daylight
11 Jul - 11:49:05 10° N 11:50:45 13° NNE 11:52:28 10° ENE daylight
11 Jul - 13:24:16 10° NW 13:27:31 77° SW 13:30:43 10° SE daylight
12 Jul - 04:26:04 10° SSE 04:27:52 14° SE 04:29:46 10° E visible
12 Jul - 06:00:55 10° WSW 06:04:00 41° NW 06:07:07 10° NE daylight
12 Jul - 12:30:46 10° NW 12:33:54 46° NE 12:37:02 10° ESE daylight
12 Jul - 14:08:27 10° W 14:10:01 13° SW 14:11:27 10° SSW daylight
13 Jul - 05:07:08 10° SW 05:10:23 87° SE 05:13:38 10° NE visible
13 Jul - 06:45:39 10° NW 06:47:11 13° NNW 06:48:41 10° N daylight
13 Jul - 11:37:28 10° NNW 11:40:11 24° NNE 11:42:54 10° E daylight
13 Jul - 13:13:45 10° WNW 13:16:33 27° SW 13:19:20 10° S daylight
